site,latitude,longitude,date,time,time2,pH_1_1m,pH_0_5m,pH_0_3m,temp_1_1m,temp_0_5m,temp_0_3m,DO_1_1m,DO_0_5m,DO_0_3m,OMEGA_1_1m,OMEGA_0_5m,OMEGA_0_3m,PAR,pressure,current_speed,salinity,NCP,NCC_Q_0_8,NCC_Q_0_9,NCC_Q_1_0,NCC_Q_1_1,NCC_Q_1_2
unitless,degrees_north,degrees_east,unitless,UTC,unitless,pH,pH,pH,celsius,celsius,celsius,umol/kg,umol/kg,umol/kg,unitless,unitless,unitless,umol photons m-2 s-1,decibars,meters per second,practical salinity units,mmol O2 m-2 hr-1,mmol CaCO3 m-2 hr-1,mmol CaCO3 m-2 hr-1,mmol CaCO3 m-2 hr-1,mmol CaCO3 m-2 hr-1,mmol CaCO3 m-2 hr-1
LL,5.883,-162.122,9/8/14,2014-09-08T13:37:00Z,13:37,8.033,NaN,NaN,29.43,NaN,NaN,186.75,NaN,NaN,3.59,NaN,NaN,822.4,2.93,NaN,34.02,NaN,NaN,0.0,0.0,0.0,0.0
LL,5.883,-162.122,9/8/14,2014-09-08T13:50:00Z,13:50,8.035,8.034,NaN,29.45,29.46,NaN,188.78,189.15,NaN,3.6,3.6,NaN,1015.7,2.96,NaN,34.03,NaN,NaN,0.0,0.0,0.0,0.0
LL,5.883,-162.122,9/8/14,2014-09-08T14:03:00Z,14:03,8.035,8.033,8.036,29.46,29.47,29.47,190.21,190.17,191.62,3.61,3.59,3.61,772.8,3.0,NaN,34.03,NaN,NaN,0.0,0.0,0.0,0.0
LL,5.883,-162.122,9/8/14,2014-09-08T14:16:00Z,14:16,8.034,8.033,8.036,29.47,29.48,29.48,191.19,191.02,191.98,3.6,3.59,3.61,536.8,3.05,NaN,34.03,NaN,NaN,0.0,0.0,0.0,0.0
LL,5.883,-162.122,9/8/14,2014-09-08T14:28:00Z,14:28,8.033,8.034,8.035,29.47,29.48,29.48,191.84,191.72,192.42,3.6,3.6,3.61,423.7,3.11,NaN,34.04,NaN,NaN,0.0,0.0,0.0,0.0
LL,5.883,-162.122,9/8/14,2014-09-08T14:41:00Z,14:41,8.033,8.034,8.035,29.47,29.48,29.48,192.3,192.31,192.97,3.59,3.6,3.61,414.0,3.16,NaN,34.04,NaN,NaN,0.0,0.0,0.0,0.0
LL,5.883,-162.122,9/8/14,2014-09-08T14:54:00Z,14:54,8.032,8.034,8.035,29.47,29.48,29.48,192.7,192.83,193.66,3.59,3.6,3.61,375.4,3.21,NaN,34.04,NaN,NaN,0.0,0.0,0.0,0.0
LL,5.883,-162.122,9/8/14,2014-09-08T15:07:00Z,15:07,8.033,8.034,8.036,29.47,29.48,29.48,193.16,193.31,194.54,3.59,3.6,3.61,408.5,3.26,NaN,34.04,NaN,NaN,0.0,0.0,0.0,0.0
LL,5.883,-162.122,9/8/14,2014-09-08T15:20:00Z,15:20,8.034,8.032,8.037,29.47,29.49,29.48,193.71,193.82,195.63,3.6,3.59,3.62,659.7,3.3,NaN,34.05,NaN,NaN,NaN,NaN,NaN,NaN
LL,5.883,-162.122,9/8/14,2014-09-08T15:33:00Z,15:33,8.036,8.031,8.039,29.48,29.49,29.49,194.35,194.45,196.95,3.61,3.58,3.63,847.3,3.33,NaN,34.05,NaN,NaN,NaN,NaN,NaN,NaN
LL,5.883,-162.122,9/8/14,2014-09-08T15:46:00Z,15:46,8.038,8.031,8.041,29.49,29.5,29.5,195.11,195.36,198.41,3.63,3.58,3.64,729.6,3.35,NaN,34.06,NaN,NaN,0.0,0.0,0.0,0.0
LL,5.883,-162.122,9/8/14,2014-09-08T15:59:00Z,15:59,8.041,8.035,8.043,29.5,29.51,29.52,195.98,196.61,199.91,3.64,3.61,3.66,650.0,3.37,NaN,34.07,NaN,NaN,0.0,0.0,0.0,0.0
LL,5.883,-162.122,9/8/14,2014-09-08T16:12:00Z,16:12,8.043,8.041,8.046,29.51,29.52,29.52,196.99,197.99,201.31,3.66,3.64,3.68,495.4,3.38,NaN,34.07,NaN,NaN,0.0,0.0,0.0,0.0
LL,5.883,-162.122,9/8/14,2014-09-08T16:25:00Z,16:25,8.045,8.045,8.048,29.5,29.52,29.52,198.09,199.2,202.32,3.67,3.67,3.69,513.4,3.39,NaN,34.07,NaN,NaN,0.0,0.0,0.0,0.0
LL,5.883,-162.122,9/8/14,2014-09-08T16:38:00Z,16:38,8.046,8.048,8.05,29.5,29.52,29.51,199.11,200.02,202.65,3.68,3.69,3.7,342.3,3.4,NaN,34.07,NaN,NaN,0.0,0.0,0.0,0.0
LL,5.883,-162.122,9/8/14,2014-09-08T17:06:00Z,17:06,8.046,8.046,8.047,29.48,29.5,29.49,199.92,200.21,200.47,3.68,3.68,3.68,195.3,3.42,NaN,34.07,NaN,NaN,0.0,0.0,0.0,0.0
LL,5.883,-162.122,9/8/14,2014-09-08T17:19:00Z,17:19,8.044,8.044,8.044,29.47,29.49,29.48,199.19,199.55,198.76,3.67,3.67,3.67,160.4,3.43,NaN,34.07,NaN,NaN,0.0,0.0,0.0,0.0
LL,5.883,-162.122,9/8/14,2014-09-08T17:32:00Z,17:32,8.043,8.043,8.042,29.47,29.48,29.47,197.93,198.44,197.0,3.66,3.66,3.65,112.5,3.44,NaN,34.07,NaN,NaN,0.0,0.0,0.0,0.0
LL,5.883,-162.122,9/8/14,2014-09-08T17:45:00Z,17:45,8.041,8.041,8.039,29.46,29.47,29.47,196.4,196.97,195.43,3.65,3.64,3.63,76.9,3.43,NaN,34.07,NaN,NaN,0.0,0.0,0.0,0.0
LL,5.883,-162.122,9/8/14,2014-09-08T17:58:00Z,17:58,8.039,8.039,8.038,29.45,29.47,29.46,194.84,195.25,193.93,3.64,3.63,3.62,63.6,3.4,0.065,34.07,-6.5,2.8,2.0,1.2,0.4,-0.4
LL,5.883,-162.122,9/8/14,2014-09-08T18:11:00Z,18:11,8.038,8.038,8.036,29.45,29.46,29.46,193.3,193.39,192.32,3.63,3.62,3.61,44.7,3.36,0.068,34.07,-7.0,4.2,3.3,2.5,1.6,0.7
LL,5.883,-162.122,9/8/14,2014-09-08T18:24:00Z,18:24,8.037,8.036,8.034,29.44,29.45,29.45,191.75,191.54,190.5,3.62,3.61,3.6,30.1,3.32,0.077,34.06,-10.2,4.3,3.0,1.7,0.4,-0.8
LL,5.883,-162.122,9/8/14,2014-09-08T18:37:00Z,18:37,8.035,8.034,8.032,29.43,29.44,29.44,190.21,189.84,188.61,3.61,3.6,3.59,14.5,3.29,0.066,34.06,-11.0,2.0,0.6,-0.8,-2.2,-3.5
LL,5.883,-162.122,9/8/14,2014-09-08T18:50:00Z,18:50,8.033,8.033,8.031,29.43,29.42,29.43,188.76,188.41,186.89,3.59,3.59,3.58,3.1,3.28,0.065,34.06,-12.8,0.6,-1.0,-2.6,-4.2,-5.8
LL,5.883,-162.122,9/8/14,2014-09-08T19:03:00Z,19:03,8.032,8.031,8.029,29.42,29.42,29.42,187.49,187.21,185.49,3.58,3.58,3.57,0.0,3.25,0.065,34.06,-13.8,0.7,-1.0,-2.8,-4.5,-6.2
LL,5.883,-162.122,9/8/14,2014-09-08T19:16:00Z,19:16,8.03,8.03,8.027,29.41,29.41,29.41,186.48,186.19,184.19,3.57,3.57,3.55,0.0,3.21,0.067,34.06,-16.3,1.6,-0.4,-2.5,-4.5,-6.5
LL,5.883,-162.122,9/8/14,2014-09-08T19:29:00Z,19:29,8.029,8.029,8.025,29.41,29.41,29.41,185.6,185.26,182.71,3.57,3.56,3.54,0.0,3.15,0.06,34.06,-18.3,2.2,-0.1,-2.4,-4.7,-7.0
LL,5.883,-162.122,9/8/14,2014-09-08T19:41:00Z,19:41,8.028,8.027,8.022,29.4,29.4,29.41,184.72,184.25,180.86,3.56,3.55,3.52,0.0,3.09,0.064,34.07,-26.0,2.6,-0.7,-3.9,-7.2,-10.4
LL,5.883,-162.122,9/8/14,2014-09-08T19:54:00Z,19:54,8.027,8.025,8.019,29.39,29.4,29.41,183.72,182.98,178.8,3.55,3.54,3.5,0.0,3.04,0.061,34.07,-31.4,2.9,-1.1,-5.0,-8.9,-12.8
LL,5.883,-162.122,9/8/14,2014-09-08T20:07:00Z,20:07,8.026,8.023,8.017,29.39,29.39,29.4,182.54,181.34,176.79,3.54,3.53,3.49,0.0,2.99,0.066,34.06,-40.1,4.1,-0.9,-5.9,-10.9,-15.9
LL,5.883,-162.122,9/8/14,2014-09-08T20:20:00Z,20:20,8.024,8.021,8.014,29.38,29.39,29.39,181.19,179.5,175.06,3.54,3.52,3.47,0.0,2.95,0.07,34.06,-44.9,5.7,0.1,-5.5,-11.1,-16.7
LL,5.883,-162.122,9/8/14,2014-09-08T20:33:00Z,20:33,8.022,8.019,8.013,29.37,29.38,29.38,179.67,177.71,173.71,3.52,3.5,3.46,0.0,2.9,0.062,34.06,-38.9,5.6,0.7,-4.1,-9.0,-13.8
LL,5.883,-162.122,9/8/14,2014-09-08T20:46:00Z,20:46,8.02,8.017,8.012,29.37,29.37,29.37,178.18,176.17,172.8,3.51,3.49,3.46,0.0,2.85,0.071,34.06,-39.8,5.5,0.6,-4.4,-9.3,-14.3
LL,5.883,-162.122,9/8/14,2014-09-08T20:59:00Z,20:59,8.019,8.016,8.012,29.36,29.37,29.36,176.95,174.98,172.34,3.5,3.48,3.46,0.0,2.8,0.069,34.06,-33.2,3.4,-0.7,-4.8,-9.0,-13.1
LL,5.883,-162.122,9/8/14,2014-09-08T21:12:00Z,21:12,8.018,8.015,8.012,29.35,29.36,29.36,176.11,174.2,172.16,3.49,3.48,3.46,0.0,2.75,0.069,34.05,-28.3,1.4,-2.2,-5.7,-9.2,-12.7
LL,5.883,-162.122,9/8/14,2014-09-08T21:25:00Z,21:25,8.017,8.015,8.012,29.35,29.35,29.36,175.43,173.81,172.01,3.49,3.48,3.46,0.0,2.71,0.067,34.05,-23.9,0.1,-2.9,-5.8,-8.8,-11.8
LL,5.883,-162.122,9/8/14,2014-09-08T21:38:00Z,21:38,8.016,8.015,8.012,29.34,29.35,29.35,174.59,173.49,171.69,3.48,3.47,3.46,0.0,2.67,0.067,34.05,-20.3,0.0,-2.6,-5.1,-7.6,-10.1
LL,5.883,-162.122,9/8/14,2014-09-08T21:51:00Z,21:51,8.014,8.014,8.011,29.34,29.34,29.34,173.36,172.86,171.13,3.47,3.47,3.45,0.0,2.63,0.066,34.05,-15.5,0.1,-1.8,-3.7,-5.7,-7.6
LL,5.883,-162.122,9/8/14,2014-09-08T22:04:00Z,22:04,8.012,8.012,8.01,29.33,29.33,29.33,171.91,171.65,170.27,3.46,3.46,3.45,0.0,2.59,0.07,34.05,-12.1,0.3,-1.2,-2.7,-4.2,-5.7
LL,5.883,-162.122,9/8/14,2014-09-08T22:17:00Z,22:17,8.01,8.01,8.008,29.33,29.32,29.32,170.51,170.09,169.1,3.45,3.44,3.43,0.0,2.55,0.071,34.05,-10.5,0.4,-0.9,-2.2,-3.5,-4.8
LL,5.883,-162.122,9/8/14,2014-09-08T22:29:00Z,22:29,8.009,8.008,8.006,29.32,29.31,29.32,169.32,168.53,167.69,3.44,3.43,3.42,0.0,2.52,0.07,34.04,-11.9,1.1,-0.4,-1.9,-3.3,-4.8
LL,5.883,-162.122,9/8/14,2014-09-08T22:42:00Z,22:42,8.007,8.006,8.004,29.32,29.31,29.31,168.15,167.24,166.14,3.42,3.42,3.4,0.0,2.5,0.065,34.04,-13.6,2.2,0.5,-1.1,-2.8,-4.5
LL,5.883,-162.122,9/8/14,2014-09-08T22:55:00Z,22:55,8.005,8.004,8.001,29.31,29.3,29.31,166.7,166.03,164.54,3.41,3.4,3.39,0.0,2.48,0.073,34.04,-16.5,4.0,1.9,-0.1,-2.1,-4.2
LL,5.883,-162.122,9/8/14,2014-09-08T23:08:00Z,23:08,8.001,8.001,7.998,29.3,29.3,29.3,164.81,164.62,162.99,3.39,3.39,3.37,0.0,2.48,0.072,34.04,-13.8,3.9,2.2,0.5,-1.2,-2.9
LL,5.883,-162.122,9/8/14,2014-09-08T23:21:00Z,23:21,7.998,7.998,7.996,29.3,29.3,29.3,162.81,162.86,161.58,3.37,3.37,3.35,0.0,2.47,0.065,34.04,-8.6,2.0,1.0,-0.1,-1.1,-2.2
LL,5.883,-162.122,9/8/14,2014-09-08T23:36:00Z,23:36,7.995,7.995,7.994,29.29,29.3,29.3,160.98,160.81,160.18,3.35,3.35,3.34,0.0,2.48,0.072,34.03,-6.1,-0.7,-1.4,-2.1,-2.9,-3.6
LL,5.883,-162.122,9/8/14,2014-09-08T23:49:00Z,23:49,7.995,7.994,7.994,29.3,29.3,29.3,160.23,159.6,159.26,3.35,3.34,3.34,0.0,2.49,0.066,34.03,-6.6,-1.3,-2.1,-2.9,-3.7,-4.5
LL,5.883,-162.122,9/9/14,2014-09-09T00:02:00Z,0:02,7.995,7.994,7.994,29.3,29.3,29.3,159.94,159.19,158.64,3.35,3.34,3.34,0.0,2.5,0.069,34.02,-9.3,-0.5,-1.6,-2.7,-3.9,-5.0
LL,5.883,-162.122,9/9/14,2014-09-09T00:15:00Z,0:15,7.996,7.995,7.994,29.3,29.3,29.3,159.66,159.19,158.32,3.35,3.35,3.34,0.0,2.52,0.066,34.01,-9.2,0.8,-0.4,-1.5,-2.6,-3.8
LL,5.883,-162.122,9/9/14,2014-09-09T00:28:00Z,0:28,7.995,7.996,7.994,29.3,29.3,29.3,159.06,159.05,158.16,3.35,3.35,3.34,0.0,2.54,0.071,33.99,-6.8,0.7,-0.2,-1.0,-1.8,-2.7
LL,5.883,-162.122,9/9/14,2014-09-09T00:41:00Z,0:41,7.995,7.995,7.994,29.3,29.3,29.3,158.49,158.43,158.01,3.35,3.35,3.34,0.0,2.56,0.075,33.98,-3.8,-0.3,-0.8,-1.3,-1.7,-2.2
LL,5.883,-162.122,9/9/14,2014-09-09T00:54:00Z,0:54,7.995,7.994,7.994,29.3,29.3,29.3,158.4,157.83,157.79,3.35,3.34,3.34,0.0,2.59,0.071,33.97,-4.4,-0.7,-1.2,-1.8,-2.3,-2.8
LL,5.883,-162.122,9/9/14,2014-09-09T01:07:00Z,1:07,7.997,7.995,7.995,29.3,29.3,29.3,159.13,157.94,157.81,3.36,3.34,3.35,0.0,2.64,0.075,33.98,-10.2,0.7,-0.6,-1.8,-3.1,-4.3
LL,5.883,-162.122,9/9/14,2014-09-09T01:20:00Z,1:20,7.999,7.997,7.996,29.31,29.31,29.31,160.48,159.25,158.46,3.38,3.36,3.35,0.0,2.69,0.157,33.99,-32.7,5.5,1.5,-2.5,-6.5,-10.6
LL,5.883,-162.122,9/9/14,2014-09-09T01:33:00Z,1:33,8.002,8.0,7.999,29.33,29.32,29.32,162.09,161.23,159.98,3.39,3.38,3.37,0.0,2.75,0.179,34.01,-39.3,7.7,2.9,-2.0,-6.8,-11.7
LL,5.883,-162.122,9/9/14,2014-09-09T01:46:00Z,1:46,8.004,8.004,8.002,29.34,29.34,29.34,163.63,163.13,161.88,3.41,3.4,3.39,0.0,2.79,0.168,34.03,-30.8,4.0,0.2,-3.6,-7.4,-11.2
LL,5.883,-162.122,9/9/14,2014-09-09T01:59:00Z,1:59,8.006,8.006,8.004,29.35,29.35,29.35,164.93,164.38,163.52,3.42,3.42,3.41,0.0,2.83,0.144,34.05,-21.2,-0.5,-3.1,-5.7,-8.3,-11.0
LL,5.883,-162.122,9/9/14,2014-09-09T02:11:00Z,2:11,8.007,8.006,8.005,29.36,29.36,29.36,165.86,165.1,164.42,3.43,3.42,3.42,0.0,2.87,0.128,34.06,-19.1,-2.0,-4.4,-6.7,-9.1,-11.5
LL,5.883,-162.122,9/9/14,2014-09-09T02:24:00Z,2:24,8.008,8.007,8.006,29.37,29.37,29.37,166.32,165.61,164.81,3.43,3.42,3.42,0.0,2.91,0.134,34.06,-21.0,-1.6,-4.2,-6.8,-9.4,-12.0
LL,5.883,-162.122,9/9/14,2014-09-09T02:37:00Z,2:37,8.008,8.007,8.006,29.37,29.37,29.38,166.5,166.14,165.08,3.43,3.43,3.42,0.0,2.96,0.117,34.05,-17.4,-0.4,-2.5,-4.7,-6.8,-9.0
LL,5.883,-162.122,9/9/14,2014-09-09T02:50:00Z,2:50,8.008,8.008,8.006,29.38,29.38,29.38,166.64,166.62,165.53,3.43,3.43,3.42,0.0,3.02,0.067,34.05,-7.9,-0.1,-1.1,-2.0,-3.0,-4.0
LL,5.883,-162.122,9/9/14,2014-09-09T03:03:00Z,3:03,8.008,8.008,8.007,29.38,29.38,29.39,166.92,166.9,166.06,3.43,3.43,3.42,0.0,3.07,0.059,34.05,-5.4,-0.1,-0.8,-1.5,-2.1,-2.8
LL,5.883,-162.122,9/9/14,2014-09-09T03:16:00Z,3:16,8.008,8.008,8.007,29.39,29.39,29.39,167.2,166.89,166.46,3.43,3.43,3.43,0.0,3.13,0.077,34.06,-5.9,-0.2,-1.0,-1.7,-2.5,-3.2
LL,5.883,-162.122,9/9/14,2014-09-09T03:29:00Z,3:29,8.008,8.007,8.007,29.39,29.39,29.39,167.31,166.68,166.57,3.43,3.43,3.43,0.0,3.18,0.086,34.07,-6.5,-0.2,-1.0,-1.8,-2.6,-3.4
LL,5.883,-162.122,9/9/14,2014-09-09T03:42:00Z,3:42,8.008,8.006,8.007,29.39,29.39,29.39,167.1,166.42,166.32,3.43,3.42,3.42,0.0,3.23,0.103,34.07,-8.2,-0.1,-1.1,-2.1,-3.2,-4.2
LL,5.883,-162.122,9/9/14,2014-09-09T03:55:00Z,3:55,8.007,8.006,8.005,29.39,29.39,29.39,166.7,166.21,165.67,3.42,3.42,3.41,0.0,3.27,0.093,34.08,-10.0,0.3,-0.9,-2.1,-3.3,-4.6
LL,5.883,-162.122,9/9/14,2014-09-09T04:08:00Z,4:08,8.006,8.005,8.004,29.38,29.39,29.39,166.29,166.04,164.65,3.42,3.41,3.4,0.0,3.31,0.067,34.08,-11.6,1.1,-0.3,-1.7,-3.2,-4.6
LL,5.883,-162.122,9/9/14,2014-09-09T04:21:00Z,4:21,8.006,8.005,8.002,29.38,29.39,29.39,166.03,165.85,163.56,3.42,3.41,3.39,0.0,3.33,0.055,34.08,-14.3,1.9,0.1,-1.6,-3.4,-5.2
LL,5.883,-162.122,9/9/14,2014-09-09T04:34:00Z,4:34,8.005,8.005,8.0,29.38,29.39,29.39,165.91,165.61,162.76,3.41,3.41,3.38,0.0,3.35,0.068,34.09,-22.6,2.8,0.0,-2.8,-5.6,-8.4
LL,5.883,-162.122,9/9/14,2014-09-09T04:47:00Z,4:47,8.005,8.004,8.0,29.39,29.39,29.39,165.89,165.24,162.46,3.41,3.41,3.38,0.0,3.36,0.078,34.09,-28.1,1.9,-1.6,-5.0,-8.5,-11.9
LL,5.883,-162.122,9/9/14,2014-09-09T05:00:00Z,5:00,8.005,8.004,8.0,29.39,29.39,29.39,165.87,164.68,162.37,3.41,3.4,3.38,0.0,3.39,0.073,34.1,-26.8,-0.1,-3.4,-6.7,-10.0,-13.3
LL,5.883,-162.122,9/9/14,2014-09-09T05:12:00Z,5:12,8.005,8.002,8.0,29.38,29.39,29.39,165.55,163.88,162.07,3.41,3.39,3.38,0.0,3.41,0.07,34.1,-25.3,-1.0,-4.1,-7.2,-10.4,-13.5
LL,5.883,-162.122,9/9/14,2014-09-09T05:25:00Z,5:25,8.003,8.0,7.998,29.38,29.38,29.38,164.6,162.84,161.24,3.4,3.38,3.37,0.0,3.42,0.082,34.1,-28.5,-0.1,-3.6,-7.1,-10.6,-14.1
LL,5.883,-162.122,9/9/14,2014-09-09T05:38:00Z,5:38,8.0,7.998,7.996,29.37,29.37,29.37,162.82,161.55,160.0,3.38,3.37,3.35,0.0,3.42,0.093,34.09,-27.3,2.1,-1.3,-4.7,-8.0,-11.4
LL,5.883,-162.122,9/9/14,2014-09-09T05:51:00Z,5:51,7.996,7.995,7.993,29.35,29.36,29.35,160.72,160.1,158.6,3.36,3.35,3.33,0.0,3.4,0.082,34.09,-18.2,3.3,1.1,-1.2,-3.4,-5.6
LL,5.883,-162.122,9/9/14,2014-09-09T06:06:00Z,6:06,7.993,7.992,7.99,29.34,29.35,29.34,158.71,158.56,157.03,3.33,3.33,3.31,0.0,3.38,0.088,34.08,-15.7,4.1,2.2,0.2,-1.7,-3.6
LL,5.883,-162.122,9/9/14,2014-09-09T06:19:00Z,6:19,7.992,7.991,7.988,29.33,29.34,29.34,157.98,157.82,155.84,3.33,3.32,3.3,0.0,3.37,0.09,34.08,-20.3,4.3,1.8,-0.7,-3.2,-5.7
LL,5.883,-162.122,9/9/14,2014-09-09T06:32:00Z,6:32,7.991,7.991,7.986,29.33,29.34,29.34,157.92,157.83,154.85,3.32,3.32,3.29,0.0,3.37,0.091,34.09,-29.7,4.6,0.9,-2.7,-6.4,-10.0
LL,5.883,-162.122,9/9/14,2014-09-09T06:45:00Z,6:45,7.992,7.992,7.985,29.34,29.33,29.33,158.1,158.24,154.1,3.33,3.33,3.28,0.4,3.36,0.102,34.08,-43.3,5.7,0.4,-4.9,-10.2,-15.6
LL,5.883,-162.122,9/9/14,2014-09-09T06:58:00Z,6:58,7.992,7.992,7.985,29.34,29.34,29.33,158.22,158.55,153.62,3.33,3.33,3.28,6.2,3.34,0.095,34.08,-46.4,6.4,0.7,-5.0,-10.7,-16.3
LL,5.883,-162.122,9/9/14,2014-09-09T07:11:00Z,7:11,7.993,7.993,7.985,29.34,29.34,29.34,158.42,158.45,153.42,3.33,3.33,3.28,25.8,3.31,0.089,34.07,-47.2,7.5,1.7,-4.1,-9.9,-15.7
LL,5.883,-162.122,9/9/14,2014-09-09T07:24:00Z,7:24,7.994,7.993,7.985,29.34,29.35,29.34,158.99,158.33,153.54,3.34,3.33,3.28,41.8,3.27,0.074,34.05,-42.8,7.6,2.4,-2.9,-8.1,-13.4
LL,5.883,-162.122,9/9/14,2014-09-09T07:37:00Z,7:37,7.996,7.994,7.986,29.35,29.35,29.35,160.09,158.76,154.12,3.35,3.34,3.29,43.6,3.22,0.059,34.04,-36.8,6.6,2.1,-2.5,-7.0,-11.5
LL,5.883,-162.122,9/9/14,2014-09-09T07:50:00Z,7:50,7.998,7.996,7.988,29.35,29.35,29.36,161.36,160.07,155.31,3.37,3.36,3.3,124.9,3.17,0.045,34.03,-28.5,4.6,1.1,-2.4,-5.9,-9.4
LL,5.883,-162.122,9/9/14,2014-09-09T08:03:00Z,8:03,8.0,7.999,7.992,29.35,29.36,29.36,162.33,161.56,157.11,3.38,3.37,3.33,123.9,3.13,0.024,34.02,-13.1,1.6,0.0,-1.6,-3.2,-4.8
LL,5.883,-162.122,9/9/14,2014-09-09T08:16:00Z,8:16,8.001,8.0,7.995,29.35,29.36,29.36,162.64,162.25,158.82,3.38,3.38,3.35,53.8,3.1,0.027,34.01,-10.8,NaN,NaN,NaN,NaN,NaN
LL,5.883,-162.122,9/9/14,2014-09-09T08:29:00Z,8:29,8.0,7.999,7.996,29.35,29.36,29.36,162.32,161.52,159.56,3.38,3.37,3.36,40.5,3.07,0.025,34.01,-7.3,NaN,NaN,NaN,NaN,NaN
LL,5.883,-162.122,9/9/14,2014-09-09T08:41:00Z,8:41,7.999,7.997,7.995,29.35,29.35,29.36,161.54,160.03,158.82,3.37,3.36,3.35,60.2,3.03,0.025,34.0,-7.0,NaN,NaN,NaN,NaN,NaN
LL,5.883,-162.122,9/9/14,2014-09-09T08:54:00Z,8:54,7.997,7.995,7.993,29.34,29.35,29.36,160.49,158.79,157.57,3.36,3.35,3.33,121.8,2.96,0.03,33.99,-9.1,NaN,NaN,NaN,NaN,NaN
LL,5.883,-162.122,9/9/14,2014-09-09T09:07:00Z,9:07,7.995,7.994,7.991,29.34,29.35,29.35,159.64,158.56,157.13,3.35,3.34,3.32,96.4,2.89,0.04,33.99,-10.5,NaN,NaN,NaN,NaN,NaN
LL,5.883,-162.122,9/9/14,2014-09-09T09:20:00Z,9:20,7.995,7.994,7.993,29.33,29.34,29.34,159.5,159.17,158.42,3.35,3.34,3.33,202.2,2.83,0.047,33.97,-5.3,NaN,NaN,NaN,NaN,NaN
LL,5.883,-162.122,9/9/14,2014-09-09T09:33:00Z,9:33,7.995,7.994,7.995,29.32,29.33,29.32,160.41,160.21,160.63,3.35,3.34,3.35,191.1,2.8,0.049,33.96,1.2,NaN,NaN,NaN,NaN,NaN
LL,5.883,-162.122,9/9/14,2014-09-09T09:46:00Z,9:46,7.996,7.995,7.998,29.31,29.32,29.31,161.88,161.33,162.57,3.36,3.35,3.36,222.9,2.78,0.06,33.94,4.6,NaN,NaN,NaN,NaN,NaN
LL,5.883,-162.122,9/9/14,2014-09-09T09:59:00Z,9:59,7.998,7.997,7.998,29.3,29.31,29.3,163.25,162.42,163.35,3.37,3.36,3.37,127.8,2.76,0.068,33.92,1.0,NaN,NaN,NaN,NaN,NaN
LL,5.883,-162.122,9/9/14,2014-09-09T10:12:00Z,10:12,7.999,7.998,7.998,29.29,29.3,29.3,164.04,163.43,163.4,3.37,3.37,3.37,113.5,2.72,0.074,33.92,-4.8,NaN,NaN,NaN,NaN,NaN
LL,5.883,-162.122,9/9/14,2014-09-09T10:25:00Z,10:25,8.0,7.999,7.998,29.29,29.3,29.3,164.47,164.31,163.5,3.38,3.38,3.37,114.5,2.67,0.078,33.93,-8.0,NaN,NaN,NaN,NaN,NaN
LL,5.883,-162.122,9/9/14,2014-09-09T10:38:00Z,10:38,8.001,8.001,8.0,29.29,29.3,29.3,164.95,165.1,164.2,3.38,3.38,3.38,140.1,2.62,0.082,33.93,-6.6,-1.4,-2.2,-3.0,-3.8,-4.7
LL,5.883,-162.122,9/9/14,2014-09-09T10:51:00Z,10:51,8.002,8.002,8.002,29.29,29.3,29.31,165.82,165.8,165.37,3.4,3.39,3.39,149.0,2.58,0.081,33.93,-3.9,-0.6,-1.0,-1.5,-2.0,-2.5
LL,5.883,-162.122,9/9/14,2014-09-09T11:04:00Z,11:04,8.004,8.004,8.004,29.3,29.31,29.31,167.04,166.51,166.64,3.41,3.4,3.4,112.5,2.55,0.095,33.94,-3.8,0.7,0.3,-0.2,-0.7,-1.1
LL,5.883,-162.122,9/9/14,2014-09-09T11:17:00Z,11:17,8.007,8.005,8.005,29.32,29.32,29.32,168.51,167.61,167.83,3.42,3.42,3.41,122.8,2.53,0.101,33.94,-6.8,2.3,1.5,0.7,-0.2,-1.0
LL,5.883,-162.122,9/9/14,2014-09-09T11:30:00Z,11:30,8.009,8.008,8.007,29.33,29.33,29.33,170.13,169.54,169.35,3.44,3.43,3.43,207.4,2.52,0.106,33.94,-8.4,2.4,1.3,0.3,-0.7,-1.8
LL,5.883,-162.122,9/9/14,2014-09-09T11:42:00Z,11:42,8.011,8.012,8.011,29.34,29.35,29.34,171.94,172.48,171.76,3.45,3.46,3.45,335.4,2.52,0.105,33.94,-2.3,1.1,0.9,0.6,0.3,0.0
LL,5.883,-162.122,9/9/14,2014-09-09T11:55:00Z,11:55,8.014,8.016,8.015,29.35,29.36,29.36,174.01,175.72,175.31,3.47,3.48,3.48,523.0,2.52,0.101,33.95,13.0,0.3,2.0,3.6,5.2,6.8
LL,5.883,-162.122,9/9/14,2014-09-09T12:08:00Z,12:08,8.017,8.019,8.021,29.36,29.37,29.37,176.33,178.28,179.01,3.49,3.51,3.51,451.3,2.54,0.09,33.94,24.7,1.6,4.6,7.7,10.8,13.8
LL,5.883,-162.122,9/9/14,2014-09-09T12:21:00Z,12:21,8.021,8.022,8.024,29.37,29.37,29.38,178.57,179.47,181.57,3.52,3.52,3.54,242.9,2.56,0.093,33.94,29.3,4.0,7.7,11.3,15.0,18.6
LL,5.883,-162.122,9/9/14,2014-09-09T12:36:00Z,12:36,8.024,8.023,8.025,29.37,29.38,29.38,180.54,179.74,182.04,3.54,3.53,3.54,79.0,2.6,0.135,33.92,22.1,8.4,11.1,13.9,16.6,19.4
LL,5.883,-162.122,9/9/14,2014-09-09T12:49:00Z,12:49,8.025,8.024,8.025,29.38,29.38,29.38,181.33,179.82,181.2,3.54,3.53,3.54,96.3,2.62,0.166,33.91,-1.1,7.6,7.4,7.3,7.1,7.0
LL,5.883,-162.122,9/9/14,2014-09-09T13:02:00Z,13:02,8.025,8.024,8.024,29.38,29.39,29.38,181.54,180.34,180.43,3.54,3.54,3.53,133.5,2.65,0.168,33.9,-18.8,1.6,-0.8,-3.1,-5.5,-7.8
LL,5.883,-162.122,9/9/14,2014-09-09T13:15:00Z,13:15,8.025,8.025,8.024,29.39,29.4,29.39,181.54,181.1,180.59,3.54,3.54,3.54,155.3,2.69,0.17,33.9,-16.8,-4.3,-6.4,-8.5,-10.5,-12.6
LL,5.883,-162.122,9/9/14,2014-09-09T13:28:00Z,13:28,8.025,8.025,8.025,29.4,29.41,29.41,181.64,181.72,181.37,3.54,3.54,3.54,182.9,2.72,0.171,33.91,-5.1,-6.3,-7.0,-7.6,-8.2,-8.9
LL,5.883,-162.122,9/9/14,2014-09-09T13:41:00Z,13:41,8.026,8.025,8.026,29.41,29.42,29.42,181.88,181.93,182.14,3.55,3.54,3.55,205.6,2.75,0.171,33.92,4.7,-4.5,-3.9,-3.3,-2.8,-2.2
LL,5.883,-162.122,9/9/14,2014-09-09T13:54:00Z,13:54,8.026,8.025,8.026,29.42,29.43,29.43,182.19,181.99,182.48,3.55,3.54,3.55,187.0,2.79,0.166,33.94,5.3,-0.3,0.4,1.0,1.7,2.4
LL,5.883,-162.122,9/9/14,2014-09-09T14:07:00Z,14:07,8.027,8.026,8.026,29.43,29.43,29.43,182.56,182.27,182.7,3.55,3.55,3.55,194.6,2.84,0.181,33.96,2.9,3.8,4.1,4.5,4.9,5.2
LL,5.883,-162.122,9/9/14,2014-09-09T14:20:00Z,14:20,8.027,8.026,8.027,29.43,29.44,29.44,183.12,183.04,183.29,3.56,3.55,3.55,311.9,2.88,0.169,33.97,3.0,5.2,5.6,6.0,6.4,6.7
LL,5.883,-162.122,9/9/14,2014-09-09T14:33:00Z,14:33,8.028,8.028,8.028,29.44,29.45,29.45,184.04,184.22,184.58,3.56,3.56,3.56,488.5,2.93,0.152,33.98,8.7,3.5,4.6,5.6,6.7,7.8
LL,5.883,-162.122,9/9/14,2014-09-09T14:46:00Z,14:46,8.029,8.029,8.03,29.45,29.46,29.45,185.38,185.6,186.28,3.57,3.57,3.58,507.9,2.97,0.13,33.99,12.4,0.0,1.5,3.1,4.6,6.1
LL,5.883,-162.122,9/9/14,2014-09-09T14:59:00Z,14:59,8.03,8.031,8.032,29.46,29.47,29.46,186.87,187.03,187.92,3.58,3.58,3.59,507.9,3.01,0.141,34.0,15.7,-3.5,-1.5,0.4,2.4,4.4
LL,5.883,-162.122,9/9/14,2014-09-09T15:11:00Z,15:11,8.032,8.032,8.033,29.47,29.48,29.47,188.14,188.38,189.15,3.58,3.59,3.6,1048.8,3.05,0.12,34.0,12.7,-4.1,-2.5,-0.9,0.7,2.3
LL,5.883,-162.122,9/9/14,2014-09-09T15:24:00Z,15:24,8.032,8.033,8.034,29.48,29.49,29.48,188.94,189.56,190.1,3.59,3.59,3.6,447.1,3.09,0.105,34.0,12.7,-2.3,-0.7,0.9,2.4,4.0
LL,5.883,-162.122,9/9/14,2014-09-09T15:37:00Z,15:37,8.033,8.034,8.035,29.48,29.5,29.49,189.51,190.48,191.02,3.59,3.6,3.61,404.4,3.12,0.071,34.0,11.1,-0.3,1.1,2.5,3.9,5.3
LL,5.883,-162.122,9/9/14,2014-09-09T15:50:00Z,15:50,8.034,8.035,8.036,29.49,29.5,29.5,190.22,191.17,192.09,3.6,3.6,3.61,564.4,3.16,0.056,34.0,10.8,-0.1,1.2,2.6,4.0,5.3
LL,5.883,-162.122,9/9/14,2014-09-09T16:03:00Z,16:03,8.034,8.035,8.037,29.5,29.51,29.51,191.3,191.7,193.23,3.6,3.61,3.62,487.2,3.2,0.057,34.0,11.6,-1.7,-0.2,1.2,2.7,4.2
LL,5.883,-162.122,9/9/14,2014-09-09T16:16:00Z,16:16,8.035,8.035,8.038,29.5,29.51,29.51,192.48,192.12,194.28,3.61,3.61,3.63,393.3,3.24,0.072,34.0,13.8,-4.8,-3.1,-1.4,0.4,2.1
LL,5.883,-162.122,9/9/14,2014-09-09T16:29:00Z,16:29,8.036,8.035,8.039,29.51,29.52,29.52,193.37,192.48,195.09,3.61,3.6,3.63,379.7,3.28,0.077,34.01,14.5,-7.1,-5.3,-3.4,-1.6,0.2
LL,5.883,-162.122,9/9/14,2014-09-09T16:42:00Z,16:42,8.036,8.035,8.039,29.52,29.52,29.52,193.68,192.83,195.5,3.61,3.6,3.63,287.7,3.32,0.076,34.01,15.0,-6.5,-4.7,-2.8,-0.9,1.0
LL,5.883,-162.122,9/9/14,2014-09-09T16:55:00Z,16:55,8.036,8.035,8.039,29.52,29.53,29.53,193.54,193.18,195.31,3.61,3.61,3.63,194.6,3.35,0.055,34.02,10.5,-3.5,-2.2,-0.9,0.4,1.7
LL,5.883,-162.122,9/9/14,2014-09-09T17:08:00Z,17:08,8.035,8.035,8.037,29.52,29.53,29.53,193.23,193.39,194.44,3.61,3.61,3.62,138.0,3.38,0.045,34.02,5.7,-1.9,-1.2,-0.5,0.3,1.0
LL,5.883,-162.122,9/9/14,2014-09-09T17:21:00Z,17:21,8.035,8.035,8.035,29.52,29.53,29.53,192.92,193.29,193.16,3.61,3.61,3.61,90.0,3.38,0.051,34.02,1.2,-1.6,-1.4,-1.3,-1.1,-0.9
LL,5.883,-162.122,9/9/14,2014-09-09T17:34:00Z,17:34,8.035,8.034,8.034,29.51,29.52,29.53,192.6,192.79,191.86,3.6,3.6,3.6,73.6,3.38,0.051,34.02,-4.1,-1.1,-1.6,-2.1,-2.6,-3.1
LL,5.883,-162.122,9/9/14,2014-09-09T17:47:00Z,17:47,8.034,8.034,8.032,29.51,29.52,29.53,192.17,192.04,190.8,3.6,3.6,3.59,69.9,3.37,0.067,34.02,-9.8,-0.5,-1.7,-3.0,-4.2,-5.4
LL,5.883,-162.122,9/9/14,2014-09-09T18:00:00Z,18:00,8.033,8.033,8.031,29.51,29.51,29.52,191.59,191.3,189.92,3.6,3.59,3.58,76.2,3.36,0.059,34.02,-10.4,0.4,-0.9,-2.2,-3.5,-4.8
LL,5.883,-162.122,9/9/14,2014-09-09T18:12:00Z,18:12,8.032,8.032,8.03,29.51,29.51,29.51,190.88,190.74,189.1,3.59,3.59,3.57,62.6,3.34,0.072,34.02,-13.6,1.0,-0.7,-2.4,-4.1,-5.8
LL,5.883,-162.122,9/9/14,2014-09-09T18:25:00Z,18:25,8.031,8.032,8.029,29.5,29.51,29.5,190.1,190.22,188.17,3.58,3.59,3.57,31.1,3.33,0.063,34.02,-13.0,0.4,-1.2,-2.9,-4.5,-6.1
LL,5.883,-162.122,9/9/14,2014-09-09T18:38:00Z,18:38,8.031,8.031,8.028,29.49,29.5,29.5,189.28,189.56,187.01,3.58,3.58,3.56,11.7,3.32,0.054,34.02,-13.2,-0.3,-2.0,-3.6,-5.3,-6.9
LL,5.883,-162.122,9/9/14,2014-09-09T18:51:00Z,18:51,8.03,8.03,8.026,29.48,29.49,29.49,188.38,188.61,185.47,3.57,3.57,3.55,2.7,3.32,0.052,34.02,-16.2,-0.7,-2.7,-4.7,-6.8,-8.8
LL,5.883,-162.122,9/9/14,2014-09-09T19:06:00Z,19:06,8.028,8.028,8.023,29.47,29.49,29.48,187.16,187.13,183.16,3.56,3.56,3.53,0.0,3.31,0.039,34.02,-16.5,-0.3,-2.3,-4.4,-6.5,-8.5